Regional Weather Roundup
Issued by NWS

Home | Current Version | Previous Version | Graphics & Text | Print | Product List | Glossary Off
Versions: 1 2 3 4 5 6 7 8 9 10 11 12 13 14 15 16 17 18 19 20 21 22 23 24 25 26 27 28 29 30 31 32 33 34 35 36 37 38 39 40 41 42 43 44 45 46 47 48 49 50

000
ASUS43 KLSX 170607
RWRMO

WEATHER SUMMARY FOR MISSOURI
NATIONAL WEATHER SERVICE SPRINGFIELD MO
100 AM CDT WED SEP 17 2014

NOTE: "FAIR" INDICATES FEW OR NO CLOUDS BELOW 12,000 FEET WITH NO
       SIGNIFICANT WEATHER AND/OR OBSTRUCTIONS TO VISIBILITY.
       CURRENT SKY AND/OR WEATHER CONDITIONS ARE NOT AVAILABLE FOR
       CHILLICOTHE AND FARMINGTON.

MOZ001>031-035>038-043-044-053-054-170700-
...NORTHERN AND WESTERN MISSOURI...

CITY           SKY/WX    TMP DP  RH WIND       PRES   REMARKS
KANSAS CTY INT CLOUDY    64  57  78 SE7       30.01F
6HR MIN TEMP:  64; 6HR MAX TEMP:  68;

KANSAS C DTWN  CLOUDY    67  57  70 E5        30.01F
6HR MIN TEMP:  66; 6HR MAX TEMP:  70;

LEE`S SUMMIT   CLOUDY    64  56  75 VRB3      30.03F
6HR MIN TEMP:  62; 6HR MAX TEMP:  68;

ST JOSEPH      CLOUDY    63  55  75 SE5       30.01F
6HR MIN TEMP:  59; 6HR MAX TEMP:  65;

CHILLICOTHE      N/A     60  54  80 CALM      30.05F
6HR MIN TEMP:  54; 6HR MAX TEMP:  65;

KIRKSVILLE     CLEAR     50  47  89 SE6       30.06F
6HR MIN TEMP:  49; 6HR MAX TEMP:  62;


$$
MOZ066>068-077>081-088>096-101>105-170700-
...SOUTHWEST MISSOURI...

CITY           SKY/WX    TMP DP  RH WIND       PRES   REMARKS
SPRINGFIELD    CLOUDY    65  62  90 SE10      30.04F
6HR MIN TEMP:  63; 6HR MAX TEMP:  70;

JOPLIN         CLEAR     66  64  93 MISG      30.03S
6HR MIN TEMP:  66; 6HR MAX TEMP:  72;


$$
MOZ032>034-039>042-045>050-055>058-069>072-170700-
...CENTRAL MISSOURI...

CITY           SKY/WX    TMP DP  RH WIND       PRES   REMARKS
COLUMBIA         N/A    N/A N/A N/A MISG      30.07F
JEFFERSON CITY MOCLDY    54  52  93 CALM      30.07F
6HR MIN TEMP:  53; 6HR MAX TEMP:  67;

ROLLA          MOCLDY    57  54  89 SE9       30.06F
6HR MIN TEMP:  52; 6HR MAX TEMP:  63;

SEDALIA        CLOUDY    61  57  87 S6        30.05F
6HR MIN TEMP:  58; 6HR MAX TEMP:  68;

WHITEMAN AFB   CLOUDY    61  59  94 S2        30.04S
OSAGE BEACH    CLOUDY    59  55  88 SE5       30.06F

$$
MOZ051-052-059>065-170700-
...EAST CENTRAL MISSOURI...

CITY           SKY/WX    TMP DP  RH WIND       PRES   REMARKS
ST LOUIS INTL  CLEAR     55  50  83 CALM      30.09F
6HR MIN TEMP:  54; 6HR MAX TEMP:  63;

SPIRIT OF STL  PTCLDY    50  49  96 CALM      30.09R FOG
6HR MIN TEMP:  49; 6HR MAX TEMP:  61;

ST CHARLES     MOCLDY    50  49  96 CALM      30.09R
6HR MIN TEMP:  49; 6HR MAX TEMP:  62;


$$
MOZ072>076-082>087-097>100-106>115-170700-
...SOUTH CENTRAL AND SOUTHEAST MISSOURI...

CITY           SKY/WX    TMP DP  RH WIND       PRES   REMARKS
CAPE GIRARDEAU CLEAR     49  48  97 CALM      30.10S FOG
6HR MIN TEMP:  49; 6HR MAX TEMP:  61;

FARMINGTON     CLEAR     52  48  87 CALM      30.11S
6HR MIN TEMP:  52; 6HR MAX TEMP:  63;

POPLAR BLUFF   CLOUDY    57  53  86 CALM      30.09S
6HR MIN TEMP:  56; 6HR MAX TEMP:  67;

WEST PLAINS    CLOUDY    63  58  83 S5        30.09F
6HR MIN TEMP:  61; 6HR MAX TEMP:  66;


$$


USA.gov is the U.S. government's official web portal to all federal, state and local government web resources and services.